QPF
0.00 0.00 0.00 0.00 0.00 0.00 0.00 0.00 0.00 0.00 0.00 0.00 0.00 0.00 0.00 0.00 0.00 0.00 0.00 0.00 0.00 0.00 0.01 0.01 0.02 0.02 0.02 0.02 0.02 0.02 0.02 0.01 0.02 0.03 0.04 0.05 0.05 0.04 0.03 0.03 0.02 0.02 0.02 0.02
0.00 0.00 0.00 0.00 0.00 0.00 0.00 0.00 0.00 0.00 0.00 0.00 0.00 0.00 0.00 0.00 0.00 0.00 0.00 0.00 0.00 0.00 0.01 0.01 0.01 0.02 0.02 0.02 0.02 0.02 0.02 0.02 0.03 0.05 0.06 0.06 0.05 0.04 0.04 0.04 0.03 0.03 0.03 0.04
0.00 0.00 0.00 0.00 0.00 0.00 0.00 0.00 0.00 0.00 0.00 0.00 0.00 0.00 0.00 0.00 0.00 0.00 0.00 0.00 0.00 0.00 0.00 0.00 0.01 0.02 0.02 0.02 0.02 0.03 0.05 0.06 0.09 0.12 0.11 0.09 0.08 0.08 0.08 0.09 0.08 0.08 0.08 0.08
0.00 0.00 0.00 0.00 0.00 0.00 0.00 0.00 0.00 0.00 0.00 0.00 0.00 0.00 0.00 0.00 0.00 0.00 0.00 0.00 0.00 0.00 0.00 0.00 0.02 0.04 0.05 0.07 0.10 0.12 0.14 0.18 0.21 0.21 0.21 0.20 0.18 0.19 0.20 0.20 0.19 0.18 0.19 0.20
0.01 0.00 0.00 0.00 0.00 0.00 0.00 0.00 0.00 0.00 0.00 0.00 0.00 0.00 0.00 0.00 0.00 0.00 0.00 0.00 0.00 0.00 0.00 0.00 0.01 0.04 0.06 0.10 0.19 0.27 0.28 0.28 0.26 0.26 0.29 0.31 0.31 0.30 0.31 0.33 0.33 0.32 0.29 0.26
0.02 0.01 0.00 0.00 0.00 0.00 0.00 0.00 0.00 0.00 0.00 0.00 0.00 0.00 0.00 0.00 0.00 0.00 0.00 0.00 0.00 0.00 0.00 0.01 0.02 0.03 0.06 0.10 0.16 0.22 0.23 0.23 0.25 0.26 0.29 0.30 0.34 0.37 0.34 0.32 0.30 0.28 0.26 0.21
0.03 0.02 0.00 0.00 0.00 0.00 0.00 0.00 0.00 0.00 0.00 0.00 0.00 0.00 0.00 0.00 0.00 0.00 0.00 0.00 0.00 0.00 0.01 0.01 0.02 0.03 0.05 0.09 0.11 0.13 0.15 0.18 0.23 0.25 0.27 0.27 0.29 0.30 0.27 0.22 0.17 0.13 0.09 0.07
0.01 0.01 0.00 0.00 0.00 0.00 0.00 0.00 0.00 0.00 0.00 0.00 0.00 0.00 0.00 0.00 0.00 0.00 0.00 0.00 0.00 0.00 0.01 0.01 0.02 0.03 0.05 0.08 0.09 0.10 0.11 0.15 0.19 0.19 0.18 0.16 0.14 0.12 0.09 0.07 0.05 0.04 0.02 0.01
0.00 0.00 0.00 0.00 0.00 0.00 0.00 0.00 0.00 0.00 0.00 0.00 0.00 0.00 0.00 0.00 0.00 0.00 0.00 0.00 0.00 0.00 0.01 0.01 0.02 0.03 0.04 0.04 0.05 0.05 0.05 0.06 0.06 0.06 0.05 0.03 0.02 0.01 0.01 0.00 0.00 0.00 0.00 0.00
0.00 0.00 0.00 0.00 0.00 0.00 0.00 0.00 0.00 0.00 0.00 0.00 0.00 0.00 0.00 0.00 0.00 0.00 0.00 0.00 0.00 0.00 0.00 0.00 0.01 0.01 0.01 0.01 0.01 0.01 0.01 0.01 0.00 0.00 0.00 0.00 0.00 0.00 0.00 0.00 0.00 0.00 0.00 0.00
0.00 0.00 0.00 0.00 0.00 0.00 0.00 0.00 0.00 0.00 0.00 0.00 0.00 0.00 0.00 0.00 0.00 0.00 0.00 0.00 0.00 0.00 0.00 0.00 0.00 0.00 0.00 0.00 0.00 0.00 0.00 0.00 0.00 0.00 0.00 0.00 0.00 0.00 0.00 0.00 0.00 0.00 0.00 0.00
0.00 0.00 0.00 0.00 0.00 0.00 0.00 0.00 0.00 0.00 0.00 0.00 0.00 0.00 0.00 0.00 0.00 0.00 0.00 0.00 0.00 0.00 0.00 0.00 0.00 0.00 0.00 0.00 0.00 0.00 0.00 0.00 0.00 0.00 0.00 0.00 0.00 0.00 0.00 0.00 0.00 0.00 0.00 0.00
0.00 0.00 0.00 0.00 0.00 0.00 0.00 0.00 0.00 0.00 0.00 0.00 0.00 0.00 0.00 0.00 0.00 0.00 0.01 0.01 0.00 0.00 0.00 0.00 0.00 0.00 0.00 0.00 0.00 0.00 0.00 0.00 0.00 0.00 0.00 0.00 0.00 0.00 0.00 0.00 0.00 0.00 0.00 0.00
0.00 0.00 0.00 0.00 0.00 0.00 0.00 0.00 0.00 0.00 0.00 0.00 0.00 0.00 0.00 0.00 0.00 0.00 0.01 0.01 0.01 0.00 0.00 0.00 0.00 0.00 0.00 0.00 0.00 0.00 0.00 0.00 0.00 0.00 0.00 0.00 0.00 0.00 0.00 0.00 0.00 0.00 0.00 0.00
0.00 0.00 0.00 0.00 0.00 0.00 0.00 0.00 0.00 0.00 0.00 0.00 0.00 0.00 0.00 0.00 0.00 0.00 0.01 0.01 0.01 0.00 0.00 0.00 0.00 0.00 0.00 0.00 0.00 0.00 0.00 0.00 0.00 0.00 0.00 0.00 0.00 0.00 0.00 0.00 0.00 0.00 0.00 0.00
0.00 0.00 0.00 0.00 0.00 0.00 0.00 0.00 0.00 0.00 0.00 0.00 0.00 0.00 0.00 0.00 0.00 0.00 0.00 0.00 0.00 0.00 0.00 0.00 0.00 0.00 0.00 0.00 0.00 0.00 0.00 0.00 0.00 0.00 0.00 0.00 0.00 0.00 0.00 0.00 0.00 0.00 0.00 0.00
0.00 0.00 0.00 0.00 0.00 0.00 0.00 0.00 0.00 0.00 0.00 0.00 0.00 0.00 0.00 0.00 0.00 0.00 0.00 0.00 0.00 0.00 0.00 0.00 0.00 0.00 0.00 0.00 0.00 0.00 0.00 0.00 0.00 0.00 0.00 0.00 0.00 0.00 0.00 0.00 0.00 0.00 0.00 0.00
0.00 0.00 0.00 0.00 0.00 0.00 0.00 0.00 0.00 0.00 0.00 0.00 0.00 0.00 0.00 0.00 0.00 0.00 0.00 0.00 0.00 0.00 0.00 0.00 0.00 0.00 0.00 0.00 0.00 0.00 0.00 0.00 0.00 0.00 0.00 0.00 0.00 0.00 0.00 0.00 0.00 0.00 0.00 0.00
0.00 0.00 0.00 0.00 0.00 0.00 0.00 0.00 0.00 0.00 0.00 0.00 0.00 0.00 0.00 0.00 0.00 0.00 0.00 0.00 0.00 0.00 0.00 0.00 0.00 0.00 0.00 0.00 0.00 0.00 0.00 0.00 0.00 0.00 0.00 0.00 0.00 0.00 0.00 0.00 0.00 0.00 0.00 0.00
0.01 0.01 0.01 0.01 0.01 0.01 0.01 0.00 0.00 0.01 0.01 0.01 0.02 0.01 0.01 0.00 0.00 0.00 0.00 0.00 0.00 0.00 0.00 0.00 0.00 0.00 0.00 0.00 0.00 0.00 0.00 0.00 0.00 0.00 0.00 0.00 0.00 0.00 0.00 0.00 0.00 0.00 0.00 0.00
0.03 0.03 0.02 0.02 0.02 0.02 0.02 0.01 0.02 0.02 0.03 0.04 0.03 0.03 0.02 0.01 0.01 0.00 0.00 0.00 0.00 0.00 0.00 0.00 0.00 0.00 0.00 0.00 0.00 0.00 0.00 0.00 0.00 0.00 0.00 0.00 0.00 0.00 0.00 0.00 0.00 0.00 0.00 0.00
0.03 0.04 0.03 0.04 0.04 0.04 0.03 0.03 0.03 0.03 0.04 0.05 0.06 0.05 0.03 0.02 0.01 0.00 0.00 0.00 0.00 0.00 0.00 0.00 0.00 0.00 0.00 0.00 0.00 0.00 0.00 0.00 0.00 0.00 0.00 0.00 0.00 0.00 0.00 0.00 0.00 0.00 0.00 0.00
0.02 0.03 0.03 0.03 0.04 0.04 0.04 0.04 0.04 0.04 0.05 0.06 0.06 0.05 0.04 0.02 0.01 0.01 0.00 0.00 0.00 0.00 0.00 0.00 0.00 0.00 0.00 0.00 0.00 0.00 0.00 0.00 0.00 0.00 0.00 0.00 0.00 0.00 0.00 0.00 0.00 0.00 0.00 0.00
0.00 0.01 0.01 0.01 0.01 0.02 0.03 0.04 0.04 0.05 0.06 0.06 0.05 0.04 0.03 0.02 0.01 0.00 0.00 0.00 0.00 0.00 0.00 0.00 0.00 0.00 0.00 0.00 0.00 0.00 0.00 0.00 0.00 0.00 0.00 0.00 0.00 0.00 0.00 0.00 0.00 0.00 0.00 0.00
0.00 0.00 0.00 0.00 0.00 0.01 0.01 0.01 0.02 0.03 0.04 0.05 0.04 0.03 0.02 0.02 0.01 0.01 0.00 0.00 0.00 0.00 0.00 0.00 0.00 0.00 0.00 0.00 0.00 0.00 0.00 0.00 0.00 0.00 0.00 0.00 0.00 0.00 0.00 0.00 0.00 0.00 0.00 0.00
0.00 0.00 0.00 0.00 0.00 0.00 0.00 0.01 0.01 0.01 0.02 0.03 0.03 0.03 0.03 0.03 0.02 0.01 0.01 0.01 0.00 0.00 0.00 0.00 0.00 0.00 0.00 0.00 0.00 0.00 0.00 0.00 0.00 0.00 0.00 0.00 0.00 0.00 0.00 0.00 0.00 0.00 0.00 0.00
0.00 0.00 0.00 0.00 0.00 0.00 0.00 0.00 0.00 0.01 0.01 0.01 0.02 0.03 0.03 0.03 0.03 0.02 0.01 0.01 0.01 0.01 0.00 0.00 0.00 0.00 0.00 0.00 0.00 0.00 0.00 0.00 0.00 0.00 0.00 0.00 0.00 0.00 0.00 0.00 0.00 0.00 0.00 0.00
MSLP
1016.37 1017.02 1017.62 1018.09 1018.36 1018.40 1018.16 1017.67 1016.96 1016.09 1015.14 1014.21 1013.38 1012.72 1012.25 1011.99 1011.91 1011.98 1012.12 1012.29 1012.41 1012.45 1012.37 1012.17 1011.85 1011.44 1010.96 1010.44 1009.93 1009.45 1009.03 1008.70 1008.48 1008.38 1008.41 1008.58 1008.87 1009.27 1009.77 1010.33 1010.94 1011.57 1012.22 1012.89
1016.10 1016.60 1017.02 1017.30 1017.40 1017.29 1016.97 1016.45 1015.78 1015.04 1014.28 1013.58 1013.02 1012.63 1012.42 1012.38 1012.49 1012.69 1012.93 1013.15 1013.29 1013.33 1013.24 1013.02 1012.69 1012.26 1011.78 1011.27 1010.77 1010.31 1009.92 1009.62 1009.42 1009.35 1009.41 1009.60 1009.90 1010.30 1010.79 1011.33 1011.91 1012.51 1013.12 1013.74
1015.71 1016.01 1016.21 1016.27 1016.19 1015.94 1015.55 1015.04 1014.47 1013.90 1013.37 1012.96 1012.69 1012.59 1012.65 1012.84 1013.13 1013.46 1013.77 1014.02 1014.16 1014.18 1014.07 1013.83 1013.49 1013.07 1012.61 1012.13 1011.67 1011.25 1010.91 1010.65 1010.50 1010.46 1010.55 1010.76 1011.07 1011.47 1011.95 1012.47 1013.02 1013.58 1014.14 1014.71
1015.23 1015.29 1015.25 1015.10 1014.84 1014.48 1014.05 1013.59 1013.15 1012.77 1012.50 1012.37 1012.41 1012.59 1012.90 1013.30 1013.73 1014.15 1014.51 1014.77 1014.89 1014.89 1014.75 1014.51 1014.17 1013.78 1013.36 1012.94 1012.54 1012.20 1011.92 1011.73 1011.63 1011.64 1011.76 1011.99 1012.31 1012.70 1013.16 1013.66 1014.18 1014.71 1015.22 1015.74
1014.68 1014.50 1014.24 1013.90 1013.49 1013.05 1012.62 1012.23 1011.94 1011.77 1011.75 1011.89 1012.19 1012.61 1013.13 1013.68 1014.22 1014.69 1015.07 1015.31 1015.42 1015.39 1015.24 1015.00 1014.69 1014.35 1013.99 1013.66 1013.36 1013.11 1012.92 1012.81 1012.78 1012.83 1012.99 1013.23 1013.55 1013.94 1014.37 1014.84 1015.33 1015.81 1016.28 1016.74
1014.09 1013.71 1013.26 1012.77 1012.26 1011.79 1011.39 1011.10 1010.95 1010.98 1011.18 1011.54 1012.05 1012.66 1013.32 1013.96 1014.55 1015.05 1015.41 1015.63 1015.71 1015.66 1015.52 1015.30 1015.05 1014.78 1014.53 1014.30 1014.11 1013.97 1013.88 1013.85 1013.89 1014.00 1014.18 1014.43 1014.74 1015.11 1015.52 1015.95 1016.39 1016.83 1017.24 1017.64
1013.48 1012.96 1012.39 1011.81 1011.26 1010.80 1010.46 1010.28 1010.28 1010.47 1010.84 1011.37 1012.02 1012.73 1013.46 1014.14 1014.74 1015.21 1015.55 1015.74 1015.80 1015.75 1015.64 1015.48 1015.30 1015.14 1015.00 1014.89 1014.83 1014.80 1014.81 1014.87 1014.96 1015.11 1015.31 1015.55 1015.85 1016.19 1016.56 1016.94 1017.33 1017.70 1018.06 1018.38
1012.87 1012.27 1011.66 1011.06 1010.54 1010.14 1009.88 1009.81 1009.93 1010.25 1010.73 1011.36 1012.07 1012.83 1013.56 1014.23 1014.79 1015.22 1015.52 1015.69 1015.75 1015.73 1015.67 1015.59 1015.52 1015.47 1015.46 1015.48 1015.54 1015.62 1015.72 1015.84 1015.99 1016.16 1016.36 1016.59 1016.86 1017.15 1017.47 1017.79 1018.12 1018.42 1018.71 1018.96
1012.29 1011.70 1011.11 1010.57 1010.12 1009.80 1009.65 1009.67 1009.89 1010.28 1010.83 1011.49 1012.21 1012.94 1013.63 1014.24 1014.75 1015.14 1015.40 1015.57 1015.65 1015.69 1015.70 1015.72 1015.77 1015.85 1015.96 1016.10 1016.26 1016.43 1016.61 1016.78 1016.95 1017.13 1017.32 1017.53 1017.75 1018.00 1018.25 1018.51 1018.76 1019.00 1019.20 1019.38
1011.80 1011.28 1010.78 1010.33 1009.98 1009.76 1009.70 1009.80 1010.08 1010.51 1011.06 1011.69 1012.37 1013.04 1013.66 1014.21 1014.66 1015.01 1015.26 1015.44 1015.57 1015.68 1015.79 1015.93 1016.09 1016.28 1016.51 1016.75 1016.99 1017.23 1017.45 1017.65 1017.84 1018.01 1018.18 1018.35 1018.53 1018.72 1018.91 1019.11 1019.29 1019.45 1019.58 1019.69
1011.47 1011.06 1010.66 1010.32 1010.07 1009.94 1009.95 1010.11 1010.40 1010.82 1011.34 1011.91 1012.52 1013.11 1013.65 1014.14 1014.54 1014.88 1015.15 1015.37 1015.57 1015.76 1015.98 1016.22 1016.49 1016.78 1017.09 1017.41 1017.71 1017.98 1018.22 1018.43 1018.61 1018.77 1018.91 1019.05 1019.19 1019.33 1019.47 1019.60 1019.72 1019.82 1019.89 1019.93
1011.36 1011.05 1010.76 1010.52 1010.34 1010.27 1010.32 1010.48 1010.75 1011.13 1011.58 1012.08 1012.61 1013.12 1013.60 1014.04 1014.43 1014.77 1015.08 1015.36 1015.64 1015.94 1016.25 1016.58 1016.93 1017.30 1017.67 1018.02 1018.34 1018.62 1018.86 1019.06 1019.23 1019.37 1019.49 1019.61 1019.72 1019.82 1019.93 1020.02 1020.10 1020.15 1020.17 1020.16
1011.49 1011.27 1011.05 1010.85 1010.71 1010.65 1010.68 1010.81 1011.04 1011.35 1011.73 1012.16 1012.61 1013.06 1013.51 1013.93 1014.33 1014.71 1015.07 1015.43 1015.79 1016.17 1016.56 1016.96 1017.37 1017.78 1018.17 1018.53 1018.85 1019.12 1019.35 1019.53 1019.69 1019.81 1019.93 1020.03 1020.13 1020.22 1020.31 1020.38 1020.43 1020.45 1020.44 1020.39
1011.83 1011.65 1011.45 1011.26 1011.10 1011.01 1010.99 1011.06 1011.21 1011.45 1011.76 1012.12 1012.52 1012.95 1013.38 1013.82 1014.25 1014.68 1015.11 1015.54 1015.97 1016.41 1016.86 1017.30 1017.74 1018.15 1018.54 1018.89 1019.19 1019.44 1019.66 1019.83 1019.98 1020.11 1020.23 1020.34 1020.44 1020.54 1020.63 1020.69 1020.73 1020.74 1020.71 1020.65
1012.32 1012.13 1011.90 1011.66 1011.44 1011.28 1011.18 1011.17 1011.24 1011.41 1011.66 1011.98 1012.36 1012.78 1013.24 1013.71 1014.19 1014.68 1015.17 1015.66 1016.15 1016.63 1017.11 1017.56 1018.00 1018.40 1018.76 1019.09 1019.37 1019.61 1019.81 1019.99 1020.15 1020.29 1020.43 1020.56 1020.68 1020.80 1020.89 1020.96 1021.00 1021.00 1020.96 1020.89
1012.85 1012.61 1012.31 1011.99 1011.69 1011.42 1011.24 1011.14 1011.15 1011.26 1011.48 1011.78 1012.16 1012.61 1013.09 1013.61 1014.15 1014.69 1015.23 1015.76 1016.28 1016.78 1017.26 1017.71 1018.13 1018.50 1018.84 1019.14 1019.41 1019.65 1019.86 1020.05 1020.23 1020.40 1020.57 1020.73 1020.88 1021.01 1021.12 1021.20 1021.23 1021.23 1021.18 1021.10
1013.33 1013.01 1012.62 1012.20 1011.80 1011.44 1011.17 1011.01 1010.96 1011.04 1011.25 1011.56 1011.96 1012.44 1012.97 1013.53 1014.12 1014.70 1015.27 1015.83 1016.35 1016.85 1017.31 1017.74 1018.13 1018.49 1018.81 1019.10 1019.37 1019.62 1019.86 1020.08 1020.30 1020.51 1020.71 1020.90 1021.07 1021.22 1021.33 1021.40 1021.42 1021.40 1021.34 1021.25
1013.67 1013.27 1012.79 1012.28 1011.79 1011.36 1011.03 1010.82 1010.75 1010.82 1011.03 1011.36 1011.80 1012.31 1012.88 1013.48 1014.09 1014.69 1015.28 1015.83 1016.34 1016.82 1017.26 1017.67 1018.04 1018.39 1018.71 1019.02 1019.31 1019.59 1019.87 1020.14 1020.40 1020.65 1020.89 1021.09 1021.27 1021.41 1021.51 1021.56 1021.56 1021.51 1021.43 1021.31
1013.85 1013.37 1012.82 1012.25 1011.70 1011.22 1010.86 1010.64 1010.56 1010.65 1010.87 1011.23 1011.69 1012.23 1012.82 1013.44 1014.06 1014.66 1015.23 1015.76 1016.25 1016.71 1017.13 1017.52 1017.89 1018.24 1018.59 1018.93 1019.26 1019.60 1019.93 1020.25 1020.56 1020.85 1021.10 1021.32 1021.49 1021.60 1021.67 1021.68 1021.63 1021.55 1021.42 1021.27
1013.90 1013.38 1012.79 1012.18 1011.61 1011.12 1010.76 1010.54 1010.48 1010.58 1010.82 1011.20 1011.67 1012.22 1012.80 1013.41 1014.00 1014.58 1015.12 1015.62 1016.08 1016.52 1016.93 1017.32 1017.70 1018.09 1018.47 1018.87 1019.26 1019.66 1020.05 1020.42 1020.77 1021.07 1021.34 1021.54 1021.68 1021.76 1021.78 1021.74 1021.64 1021.50 1021.33 1021.14
1013.91 1013.37 1012.77 1012.17 1011.60 1011.13 1010.79 1010.59 1010.54 1010.65 1010.90 1011.27 1011.73 1012.25 1012.81 1013.37 1013.93 1014.45 1014.95 1015.42 1015.86 1016.27 1016.68 1017.09 1017.51 1017.94 1018.38 1018.83 1019.29 1019.75 1020.19 1020.61 1020.98 1021.30 1021.55 1021.73 1021.83 1021.86 1021.83 1021.73 1021.58 1021.38 1021.17 1020.94
1013.97 1013.44 1012.86 1012.28 1011.75 1011.31 1010.99 1010.81 1010.78 1010.88 1011.11 1011.45 1011.87 1012.34 1012.83 1013.33 1013.82 1014.29 1014.74 1015.17 1015.59 1016.00 1016.43 1016.86 1017.32 1017.80 1018.30 1018.82 1019.34 1019.84 1020.32 1020.76 1021.14 1021.45 1021.68 1021.83 1021.89 1021.87 1021.78 1021.62 1021.42 1021.19 1020.94 1020.67
1014.14 1013.64 1013.11 1012.57 1012.09 1011.69 1011.39 1011.22 1011.17 1011.25 1011.44 1011.72 1012.06 1012.45 1012.86 1013.28 1013.70 1014.11 1014.51 1014.91 1015.32 1015.73 1016.18 1016.65 1017.15 1017.68 1018.23 1018.80 1019.36 1019.90 1020.39 1020.84 1021.21 1021.50 1021.69 1021.80 1021.81 1021.75 1021.61 1021.42 1021.19 1020.93 1020.65 1020.36
1014.44 1014.00 1013.51 1013.03 1012.59 1012.22 1011.94 1011.76 1011.69 1011.72 1011.84 1012.03 1012.29 1012.58 1012.90 1013.23 1013.57 1013.92 1014.29 1014.66 1015.06 1015.50 1015.96 1016.47 1017.01 1017.58 1018.17 1018.76 1019.34 1019.88 1020.37 1020.80 1021.14 1021.39 1021.55 1021.62 1021.59 1021.49 1021.33 1021.12 1020.87 1020.59 1020.30 1020.01
1014.85 1014.46 1014.03 1013.60 1013.20 1012.86 1012.58 1012.38 1012.26 1012.22 1012.26 1012.36 1012.51 1012.70 1012.93 1013.18 1013.46 1013.76 1014.09 1014.46 1014.87 1015.32 1015.81 1016.35 1016.92 1017.51 1018.11 1018.71 1019.27 1019.79 1020.26 1020.64 1020.94 1021.15 1021.27 1021.29 1021.24 1021.12 1020.94 1020.72 1020.46 1020.19 1019.91 1019.61
1015.28 1014.94 1014.57 1014.19 1013.83 1013.49 1013.20 1012.97 1012.80 1012.69 1012.64 1012.65 1012.71 1012.81 1012.95 1013.14 1013.37 1013.64 1013.96 1014.33 1014.75 1015.22 1015.74 1016.29 1016.88 1017.47 1018.07 1018.64 1019.17 1019.65 1020.06 1020.39 1020.63 1020.79 1020.86 1020.85 1020.77 1020.64 1020.46 1020.24 1020.00 1019.73 1019.45 1019.16
1015.62 1015.35 1015.03 1014.69 1014.35 1014.02 1013.72 1013.46 1013.24 1013.06 1012.94 1012.87 1012.85 1012.88 1012.97 1013.11 1013.31 1013.57 1013.89 1014.28 1014.72 1015.21 1015.75 1016.32 1016.90 1017.48 1018.05 1018.58 1019.06 1019.47 1019.81 1020.08 1020.26 1020.36 1020.38 1020.34 1020.24 1020.10 1019.92 1019.71 1019.47 1019.22 1018.94 1018.65
Thickness
5501 5509 5508 5510 5511 5506 5505 5503 5503 5515 5521 5547 5558 5559 5560 5557 5548 5541 5536 5531 5526 5522 5518 5514 5509 5503 5498 5492 5488 5486 5485 5485 5488 5492 5496 5499 5503 5506 5509 5511 5513 5514 5515 5515
5500 5507 5505 5505 5510 5511 5511 5514 5517 5522 5534 5557 5557 5555 5554 5547 5535 5530 5524 5520 5516 5511 5508 5503 5499 5493 5487 5481 5478 5476 5475 5474 5475 5478 5481 5483 5486 5489 5491 5493 5495 5498 5499 5500
5495 5505 5509 5508 5520 5519 5518 5524 5528 5530 5543 5554 5554 5554 5548 5535 5524 5519 5514 5511 5506 5501 5498 5495 5490 5486 5479 5473 5470 5468 5465 5463 5464 5466 5467 5469 5471 5473 5475 5477 5480 5483 5485 5487
5501 5507 5502 5529 5541 5532 5530 5536 5538 5542 5549 5552 5552 5547 5535 5524 5517 5511 5507 5502 5497 5494 5492 5489 5485 5481 5475 5470 5466 5461 5458 5455 5454 5455 5455 5457 5458 5460 5462 5465 5468 5470 5472 5474
5504 5507 5512 5530 5539 5533 5532 5540 5546 5544 5549 5550 5547 5539 5529 5517 5512 5506 5500 5497 5492 5490 5487 5485 5482 5477 5473 5468 5463 5458 5454 5451 5450 5449 5449 5450 5451 5452 5454 5457 5458 5460 5461 5463
5504 5507 5512 5534 5543 5544 5542 5543 5552 5548 5547 5545 5541 5537 5533 5513 5507 5502 5497 5493 5490 5487 5485 5482 5479 5475 5471 5466 5462 5458 5453 5450 5448 5448 5448 5448 5448 5449 5450 5452 5452 5452 5452 5452
5505 5506 5513 5533 5540 5541 5538 5544 5551 5549 5545 5542 5535 5532 5519 5509 5504 5499 5495 5491 5488 5485 5482 5479 5476 5473 5469 5465 5461 5457 5454 5451 5449 5448 5447 5446 5446 5445 5445 5445 5444 5443 5442 5441
5506 5506 5513 5537 5535 5537 5543 5546 5545 5544 5542 5538 5530 5518 5511 5506 5501 5497 5493 5489 5486 5482 5479 5475 5473 5470 5466 5462 5458 5456 5453 5450 5448 5446 5445 5443 5443 5440 5439 5438 5437 5435 5434 5431
5512 5520 5531 5534 5537 5542 5540 5539 5540 5537 5536 5531 5523 5515 5510 5504 5499 5495 5491 5487 5483 5480 5475 5472 5469 5466 5463 5458 5456 5454 5451 5447 5444 5442 5440 5439 5437 5435 5433 5431 5430 5428 5426 5422
5508 5515 5523 5528 5531 5535 5536 5536 5536 5533 5530 5524 5519 5514 5508 5502 5496 5492 5488 5484 5480 5477 5472 5468 5465 5462 5459 5456 5453 5450 5446 5442 5439 5437 5434 5432 5432 5430 5427 5424 5422 5421 5418 5413
5509 5517 5522 5531 5532 5534 5534 5532 5530 5528 5525 5521 5516 5511 5506 5500 5496 5491 5486 5481 5477 5473 5469 5464 5461 5458 5455 5452 5449 5445 5440 5437 5434 5431 5428 5426 5425 5422 5420 5417 5416 5414 5410 5407
5508 5513 5514 5519 5525 5526 5526 5526 5525 5522 5520 5517 5513 5509 5504 5499 5494 5489 5484 5479 5474 5470 5465 5461 5457 5453 5450 5448 5445 5442 5437 5432 5429 5426 5423 5421 5419 5417 5417 5415 5413 5409 5405 5401
5499 5502 5503 5510 5514 5517 5519 5520 5520 5517 5515 5511 5508 5505 5500 5496 5491 5486 5481 5476 5472 5467 5462 5457 5453 5449 5446 5444 5441 5438 5433 5429 5425 5422 5419 5416 5413 5410 5406 5405 5403 5401 5398 5394
5487 5488 5496 5502 5503 5505 5508 5511 5511 5510 5508 5505 5502 5498 5494 5490 5486 5482 5478 5473 5468 5463 5458 5453 5449 5445 5443 5440 5437 5433 5429 5426 5421 5417 5413 5409 5407 5403 5400 5396 5392 5388 5386 5384
5476 5475 5479 5485 5490 5495 5498 5499 5500 5499 5498 5496 5494 5491 5488 5485 5481 5478 5473 5469 5463 5458 5453 5449 5445 5441 5439 5436 5433 5428 5424 5419 5415 5411 5407 5404 5400 5396 5392 5388 5383 5379 5375 5372
5465 5468 5474 5480 5484 5488 5489 5491 5492 5492 5490 5489 5487 5485 5483 5480 5476 5471 5468 5463 5459 5454 5450 5445 5441 5437 5435 5432 5428 5423 5419 5416 5411 5406 5402 5398 5393 5389 5384 5379 5375 5370 5366 5361
5457 5464 5467 5471 5476 5479 5482 5485 5487 5488 5486 5484 5482 5479 5475 5472 5468 5464 5461 5458 5455 5450 5445 5441 5437 5434 5430 5427 5423 5418 5414 5410 5407 5400 5395 5391 5386 5381 5377 5372 5367 5361 5356 5352
5452 5456 5460 5464 5469 5474 5479 5482 5484 5484 5483 5481 5476 5472 5469 5467 5464 5459 5454 5450 5446 5442 5439 5436 5432 5429 5425 5421 5417 5412 5408 5403 5398 5393 5388 5384 5379 5374 5369 5364 5359 5354 5348 5343
5448 5452 5456 5461 5465 5470 5475 5480 5482 5481 5479 5475 5471 5468 5466 5463 5458 5453 5449 5445 5442 5437 5433 5430 5428 5423 5419 5416 5412 5407 5401 5396 5392 5386 5381 5378 5371 5366 5361 5356 5351 5346 5341 5336
5444 5447 5452 5456 5462 5466 5471 5475 5476 5475 5472 5469 5466 5462 5459 5455 5451 5447 5444 5441 5439 5436 5430 5426 5423 5418 5414 5410 5406 5400 5395 5390 5385 5380 5375 5369 5364 5359 5354 5349 5344 5339 5334 5329
5437 5441 5445 5449 5454 5459 5462 5466 5467 5466 5464 5462 5460 5457 5453 5449 5445 5442 5439 5436 5432 5429 5425 5423 5417 5413 5409 5405 5400 5394 5389 5383 5378 5373 5368 5362 5357 5352 5347 5342 5337 5333 5328 5323
5430 5433 5437 5441 5445 5449 5452 5455 5457 5457 5455 5454 5452 5449 5445 5442 5439 5436 5436 5434 5429 5425 5421 5417 5412 5409 5404 5399 5393 5387 5382 5376 5371 5366 5360 5355 5350 5345 5340 5336 5331 5326 5321 5315
5423 5426 5429 5432 5435 5438 5442 5445 5446 5447 5447 5446 5444 5442 5440 5438 5435 5433 5430 5427 5424 5422 5416 5412 5408 5405 5400 5392 5386 5380 5375 5369 5364 5359 5354 5349 5344 5339 5334 5329 5324 5320 5314 5309
5416 5418 5421 5424 5427 5430 5432 5433 5435 5437 5437 5437 5437 5436 5434 5431 5429 5428 5427 5425 5422 5418 5411 5408 5404 5400 5394 5384 5379 5373 5368 5363 5358 5353 5348 5343 5338 5333 5328 5324 5319 5315 5310 5304
5408 5410 5412 5415 5417 5419 5421 5423 5425 5427 5429 5429 5428 5428 5427 5426 5425 5423 5420 5419 5417 5412 5405 5403 5399 5394 5385 5378 5373 5367 5362 5357 5352 5347 5342 5337 5333 5328 5324 5319 5314 5310 5305 5300
5399 5401 5403 5405 5407 5409 5411 5414 5416 5418 5419 5420 5420 5420 5419 5418 5417 5415 5413 5411 5409 5405 5399 5395 5392 5386 5377 5372 5366 5361 5357 5352 5348 5343 5337 5333 5328 5324 5320 5316 5311 5306 5301 5295
5390 5392 5394 5396 5398 5400 5402 5405 5407 5408 5411 5412 5412 5411 5411 5410 5408 5407 5405 5403 5401 5396 5391 5387 5383 5377 5371 5365 5360 5356 5351 5346 5342 5337 5333 5328 5324 5320 5316 5311 5307 5302 5296 5291